GW3180 Weather Reports


time (UTC)temp
C
wind
direction
speed
KPH
gust
KPH
rain 1hr
cm
rain 24hr
cm
rain mn
cm
humidity
%
barometer
mb
20260510142843 25 237 0.0 1.6 0.00 0.00 0.00 83 1009.9
20260510142338 25 248 0.0 0.0 0.00 0.00 0.00 83 1010.0
20260510141835 26 228 0.0 0.0 0.00 0.00 0.00 82 1009.8
20260510141333 25 218 0.0 0.0 0.00 0.00 0.00 84 1009.9
20260510140830 25 220 0.0 0.0 0.00 0.00 0.00 84 1009.9
20260510140326 25 228 0.0 0.0 0.00 0.00 0.00 84 1009.9
20260510135820 25 85 0.0 1.6 0.00 0.00 0.00 84 1010.0
20260510135316 25 243 0.0 0.0 0.00 0.00 0.00 84 1009.8
20260510134813 25 60 0.0 0.0 0.00 0.00 0.00 83 1009.8
20260510134310 25 178 0.0 0.0 0.00 0.00 0.00 84 1009.8
20260510133806 24 212 0.0 0.0 0.00 0.00 0.00 86 1009.8
20260510133303 24 235 0.0 0.0 0.00 0.00 0.00 84 1009.7
20260510132758 24 218 0.0 0.0 0.00 0.00 0.00 84 1009.8
20260510132257 23 223 0.0 0.0 0.00 0.00 0.00 85 1009.6
20260510131753 24 260 0.0 0.0 0.00 0.00 0.00 85 1009.6
20260510131251 23 260 0.0 0.0 0.00 0.00 0.00 87 1009.5
20260510130747 22 218 0.0 0.0 0.00 0.00 0.00 89 1009.3
20260510130244 21 218 0.0 0.0 0.00 0.00 0.00 92 1009.5
20260510125740 21 200 0.0 0.0 0.00 0.00 0.00 94 1009.3
20260510125236 20 208 0.0 0.0 0.00 0.00 0.00 97 1009.1
20260510124733 20 208 0.0 0.0 0.00 0.00 0.00 98 1009.3
20260510124231 19 208 0.0 0.0 0.00 0.00 0.00 98 1009.1
20260510123726 18 208 0.0 0.0 0.00 0.00 0.00 98 1009.1
20260510123222 18 208 0.0 0.0 0.00 0.00 0.00 98 1009.2
20260510122718 18 208 0.0 0.0 0.00 0.00 0.00 98 1009.2
20260510122215 18 208 0.0 0.0 0.00 0.00 0.00 98 1009.2
20260510121711 18 208 0.0 0.0 0.00 0.00 0.00 97 1009.0
20260510121209 18 208 0.0 0.0 0.00 0.00 0.00 97 1009.1
20260510120706 18 209 0.0 0.0 0.00 0.00 0.00 97 1009.0
20260510120202 18 209 0.0 0.0 0.00 0.00 0.00 97 1008.8
20260510115657 18 209 0.0 0.0 0.00 0.00 0.00 96 1009.0
20260510115156 18 209 0.0 0.0 0.00 0.00 0.00 96 1009.0
20260510114646 18 209 0.0 0.0 0.00 0.00 0.00 96 1008.9
20260510114142 18 209 0.0 0.0 0.00 0.00 0.00 96 1008.9
20260510113638 18 209 0.0 0.0 0.00 0.00 0.00 95 1009.0
20260510113135 19 209 0.0 0.0 0.00 0.00 0.00 95 1009.1
20260510112631 19 209 0.0 0.0 0.00 0.00 0.00 95 1008.9
20260510112128 19 209 0.0 0.0 0.00 0.00 0.00 95 1008.8
20260510111624 19 209 0.0 0.0 0.00 0.00 0.00 95 1008.8
20260510111120 19 201 0.0 0.0 0.00 0.00 0.00 95 1008.9
20260510110616 19 201 0.0 0.0 0.00 0.00 0.00 95 1008.9
20260510110113 19 173 0.0 0.0 0.00 0.00 0.00 95 1009.0
20260510105609 19 173 0.0 0.0 0.00 0.00 0.00 95 1008.8
20260510105103 19 173 0.0 0.0 0.00 0.00 0.00 95 1009.2
20260510104601 19 173 0.0 0.0 0.00 0.00 0.00 95 1009.1
20260510104057 19 173 0.0 0.0 0.00 0.00 0.00 95 1009.2
20260510103554 19 183 0.0 0.0 0.00 0.00 0.00 95 1008.9
20260510103050 19 200 0.0 0.0 0.00 0.00 0.00 95 1008.9
20260510102545 19 200 0.0 0.0 0.00 0.00 0.00 95 1009.0
20260510102042 19 200 0.0 0.0 0.00 0.00 0.00 94 1009.0
20260510101540 19 200 0.0 0.0 0.00 0.00 0.00 95 1008.9
20260510101038 19 200 0.0 0.0 0.00 0.00 0.00 94 1009.0
20260510100534 19 200 0.0 0.0 0.00 0.00 0.00 94 1008.7
20260510100032 19 200 0.0 0.0 0.00 0.00 0.00 94 1008.6
20260510095527 19 200 0.0 0.0 0.00 0.00 0.00 94 1008.8
20260510095026 19 200 0.0 0.0 0.00 0.00 0.00 95 1008.8
20260510094521 19 214 0.0 0.0 0.00 0.00 0.00 95 1009.0
20260510094017 19 214 0.0 0.0 0.00 0.00 0.00 95 1008.8
20260510093513 19 214 0.0 0.0 0.00 0.00 0.00 96 1008.6
20260510093010 18 214 0.0 0.0 0.00 0.00 0.00 95 1008.5
20260510092507 19 214 0.0 0.0 0.00 0.00 0.00 95 1008.7
20260510092006 19 214 0.0 0.0 0.00 0.00 0.00 95 1008.5
20260510091504 19 214 0.0 0.0 0.00 0.00 0.00 94 1008.6
20260510090959 19 214 0.0 0.0 0.00 0.00 0.00 94 1008.7
20260510090457 19 214 0.0 0.0 0.00 0.00 0.00 94 1008.5
20260510085952 19 214 0.0 0.0 0.00 0.00 0.00 94 1008.5
20260510085447 20 214 0.0 0.0 0.00 0.00 0.00 94 1008.2
20260510084943 20 214 0.0 0.0 0.00 0.00 0.00 94 1008.5
20260510084440 20 214 0.0 0.0 0.00 0.00 0.00 93 1008.4
20260510083937 20 214 0.0 0.0 0.00 0.00 0.00 92 1008.4
20260510083434 20 214 0.0 0.0 0.00 0.00 0.00 92 1008.4
20260510082929 20 214 0.0 0.0 0.00 0.00 0.00 92 1008.2
20260510082427 20 214 0.0 0.0 0.00 0.00 0.00 91 1008.6
20260510081926 20 214 0.0 0.0 0.00 0.00 0.00 91 1008.5
20260510081422 20 214 0.0 0.0 0.00 0.00 0.00 90 1008.5
20260510080918 20 214 0.0 0.0 0.00 0.00 0.00 90 1008.3
20260510080417 21 214 0.0 0.0 0.00 0.00 0.00 90 1008.3
20260510075914 21 214 0.0 0.0 0.00 0.00 0.00 90 1008.4
20260510075412 21 214 0.0 0.0 0.00 0.00 0.00 90 1008.1
20260510074909 21 214 0.0 0.0 0.00 0.00 0.00 89 1008.0
20260510074406 21 214 0.0 0.0 0.00 0.00 0.00 89 1008.0
20260510073902 21 214 0.0 0.0 0.00 0.00 0.00 88 1008.2
20260510073358 21 214 0.0 0.0 0.00 0.00 0.00 88 1008.1
20260510072854 21 214 0.0 0.0 0.00 0.00 0.00 87 1008.2
20260510072351 21 214 0.0 0.0 0.00 0.00 0.00 87 1008.3
20260510071847 21 214 0.0 0.0 0.00 0.00 0.00 87 1008.2
20260510071343 21 214 0.0 0.0 0.00 0.00 0.00 87 1008.4
20260510070842 22 214 0.0 0.0 0.00 0.00 0.00 86 1008.2
20260510070338 22 214 0.0 0.0 0.00 0.00 0.00 86 1008.5
20260510065833 22 214 0.0 0.0 0.00 0.00 0.00 85 1008.4
20260510065330 22 214 0.0 0.0 0.00 0.00 0.00 85 1008.5
20260510064827 22 214 0.0 0.0 0.00 0.00 0.00 84 1008.2
20260510064325 22 214 0.0 0.0 0.00 0.00 0.00 84 1008.4
20260510063821 22 231 0.0 0.0 0.00 0.00 0.00 83 1008.6
20260510063318 22 231 0.0 0.0 0.00 0.00 0.00 83 1008.4
20260510062814 23 232 0.0 0.0 0.00 0.00 0.00 83 1008.4
20260510062309 23 229 0.0 0.0 0.00 0.00 0.00 82 1008.5
20260510061805 23 229 0.0 0.0 0.00 0.00 0.00 81 1008.6
20260510061302 23 228 0.0 0.0 0.00 0.00 0.00 81 1008.5
20260510060758 23 228 0.0 0.0 0.00 0.00 0.00 80 1008.4
20260510060250 23 237 0.0 0.0 0.00 0.00 0.00 80 1008.5
20260510055746 23 209 0.0 0.0 0.00 0.00 0.00 80 1008.5
20260510055245 23 221 0.0 0.0 0.00 0.00 0.00 80 1008.5
20260510054744 23 236 0.0 0.0 0.00 0.00 0.00 80 1008.2
20260510054241 23 200 0.0 0.0 0.00 0.00 0.00 80 1008.2
20260510053740 23 210 0.0 0.0 0.00 0.00 0.00 81 1008.1
20260510053237 23 201 0.0 0.0 0.00 0.00 0.00 82 1008.1
20260510052732 23 199 0.0 0.0 0.00 0.00 0.00 82 1007.9
20260510052229 23 199 0.0 0.0 0.00 0.00 0.00 81 1008.1
20260510051725 23 202 0.0 0.0 0.00 0.00 0.00 81 1008.0
20260510051221 24 193 0.0 0.0 0.00 0.00 0.00 81 1008.0
20260510050718 24 210 0.0 0.0 0.00 0.00 0.00 80 1008.0
20260510050216 24 193 0.0 0.0 0.00 0.00 0.00 80 1007.9
20260510045712 25 222 0.0 0.0 0.00 0.05 0.05 79 1007.7
20260510045209 25 223 0.0 0.0 0.00 0.05 0.05 79 1007.5
20260510044705 25 218 0.0 0.0 0.00 0.05 0.05 79 1007.7
20260510044203 25 213 0.0 0.0 0.00 0.05 0.05 79 1007.8
20260510043658 25 213 0.0 0.0 0.00 0.05 0.05 78 1008.0
20260510043155 25 214 0.0 0.0 0.00 0.05 0.05 78 1007.6
20260510042652 25 206 0.0 0.0 0.00 0.05 0.05 77 1007.7
20260510042148 25 225 0.0 1.6 0.00 0.05 0.05 77 1007.7
20260510041646 25 220 0.0 0.0 0.00 0.05 0.05 77 1007.7
20260510041143 25 208 0.0 0.0 0.00 0.05 0.05 77 1007.8
20260510040640 25 205 0.0 0.0 0.00 0.05 0.05 76 1007.7
20260510040137 25 206 0.0 0.0 0.00 0.05 0.05 75 1007.6
20260510035632 25 209 0.0 0.0 0.00 0.05 0.05 75 1007.3
20260510035127 25 209 0.0 0.0 0.00 0.05 0.05 75 1007.3
20260510034625 25 206 0.0 0.0 0.00 0.05 0.05 75 1007.3
20260510034121 25 234 0.0 0.0 0.00 0.05 0.05 74 1007.3
20260510033618 26 205 0.0 0.0 0.00 0.05 0.05 74 1007.1
20260510033116 25 204 1.6 3.2 0.00 0.05 0.05 74 1007.2
20260510032612 25 213 0.0 0.0 0.00 0.05 0.05 74 1007.3
20260510032107 25 218 0.0 0.0 0.00 0.05 0.05 74 1007.1
20260510031602 26 218 0.0 0.0 0.00 0.05 0.05 74 1006.9
20260510031059 26 218 0.0 0.0 0.00 0.05 0.05 73 1006.8
20260510030554 26 214 0.0 0.0 0.00 0.05 0.05 73 1006.9
20260510030051 26 217 0.0 0.0 0.00 0.05 0.05 73 1006.9
20260510025543 26 217 0.0 0.0 0.00 0.05 0.05 72 1006.8
20260510025040 26 217 0.0 0.0 0.00 0.05 0.05 72 1006.7
20260510024537 26 225 1.6 1.6 0.00 0.05 0.05 72 1006.7
20260510024033 26 217 0.0 1.6 0.00 0.05 0.05 72 1006.7
20260510023529 27 260 0.0 0.0 0.00 0.05 0.05 72 1006.6
20260510023026 27 226 0.0 0.0 0.00 0.05 0.05 72 1006.6
20260510022525 27 202 0.0 1.6 0.00 0.05 0.05 72 1006.5
20260510022020 27 218 0.0 0.0 0.00 0.05 0.05 72 1006.6
20260510021517 27 232 0.0 0.0 0.00 0.05 0.05 71 1006.3
20260510021015 27 233 0.0 0.0 0.00 0.05 0.05 71 1006.2
20260510020509 27 207 0.0 0.0 0.00 0.05 0.05 71 1006.0
20260510020005 27 226 0.0 0.0 0.00 0.05 0.05 70 1006.3
20260510015500 27 169 0.0 1.6 0.00 0.05 0.05 70 1006.1
20260510014956 27 210 0.0 1.6 0.00 0.05 0.05 70 1006.1
20260510014454 27 201 0.0 0.0 0.00 0.05 0.05 70 1006.0
20260510013950 27 210 0.0 0.0 0.00 0.05 0.05 70 1005.9
20260510013445 27 214 0.0 0.0 0.00 0.05 0.05 70 1005.4
20260510012941 27 214 0.0 0.0 0.00 0.05 0.05 70 1005.4
20260510012436 27 214 0.0 0.0 0.00 0.05 0.05 70 1005.6
20260510011931 27 214 0.0 0.0 0.00 0.05 0.05 67 1005.5
20260510011426 28 214 0.0 0.0 0.00 0.05 0.05 67 1005.3
20260510010922 28 216 0.0 0.0 0.00 0.05 0.05 66 1005.4
20260510010420 28 225 0.0 0.0 0.00 0.05 0.05 65 1005.1
20260510005916 28 238 0.0 0.0 0.00 0.05 0.05 64 1005.1
20260510005412 29 239 0.0 0.0 0.00 0.05 0.05 64 1005.1
20260510004910 30 239 0.0 0.0 0.00 0.05 0.05 63 1004.9
20260510004407 30 239 0.0 0.0 0.00 0.05 0.05 62 1005.0
20260510003905 30 212 0.0 0.0 0.00 0.05 0.05 61 1004.9
20260510003402 31 85 0.0 0.0 0.00 0.05 0.05 61 1005.0
20260510002901 31 258 0.0 0.0 0.00 0.05 0.05 60 1004.8
20260510002358 31 243 0.0 0.0 0.00 0.05 0.05 60 1004.6
20260510001854 31 216 0.0 0.0 0.00 0.05 0.05 60 1004.9
20260510001353 31 245 0.0 1.6 0.00 0.05 0.05 61 1004.7
20260510000849 31 236 0.0 0.0 0.00 0.05 0.05 59 1004.8
20260510000348 31 215 0.0 0.0 0.00 0.05 0.05 59 1004.9
20260509235842 31 222 0.0 1.6 0.00 0.05 0.05 60 1005.0
20260509235339 31 221 0.0 0.0 0.00 0.05 0.05 59 1004.9
20260509234835 32 211 0.0 0.0 0.00 0.05 0.05 59 1005.2
20260509234332 31 234 0.0 0.0 0.00 0.05 0.05 59 1005.1
20260509233830 31 213 0.0 1.6 0.00 0.05 0.05 59 1005.0
20260509233328 31 222 0.0 0.0 0.00 0.05 0.05 59 1004.9
20260509232822 31 215 0.0 0.0 0.00 0.05 0.05 58 1005.1
20260509232321 32 225 0.0 0.0 0.00 0.05 0.05 58 1004.9
20260509231817 31 216 0.0 1.6 0.00 0.05 0.05 56 1005.0
20260509231314 32 217 0.0 0.0 0.00 0.05 0.05 58 1004.9
20260509230812 32 219 0.0 0.0 0.00 0.05 0.05 55 1004.9
20260509230309 32 172 1.6 1.6 0.00 0.05 0.05 57 1005.0
20260509225803 32 245 0.0 0.0 0.00 0.05 0.05 57 1004.9
20260509225301 32 161 0.0 1.6 0.00 0.05 0.05 55 1004.8
20260509224756 32 236 0.0 0.0 0.00 0.05 0.05 55 1004.7
20260509224253 32 228 0.0 1.6 0.00 0.05 0.05 55 1004.7
20260509223750 33 223 0.0 0.0 0.00 0.05 0.05 55 1004.8
20260509223247 33 241 0.0 0.0 0.00 0.05 0.05 57 1005.0
20260509222743 33 141 0.0 1.6 0.00 0.05 0.05 52 1004.8
20260509222239 33 221 0.0 1.6 0.00 0.05 0.05 56 1005.0
20260509221734 33 256 0.0 0.0 0.00 0.05 0.05 54 1004.8
20260509221231 33 258 1.6 3.2 0.00 0.05 0.05 56 1004.9
20260509220727 33 248 0.0 0.0 0.00 0.05 0.05 56 1004.9
20260509220224 32 205 1.6 1.6 0.00 0.05 0.05 55 1005.2
20260509215719 32 263 0.0 0.0 0.00 0.05 0.05 51 1005.0
20260509215216 32 249 0.0 0.0 0.00 0.05 0.05 54 1005.1
20260509214713 32 242 0.0 0.0 0.00 0.05 0.05 59 1004.9
20260509214210 32 267 0.0 1.6 0.00 0.05 0.05 55 1004.9
20260509213707 32 248 4.8 6.4 0.00 0.05 0.05 55 1005.0
20260509213202 31 272 0.0 0.0 0.00 0.05 0.05 59 1004.9
20260509212701 32 275 3.2 4.8 0.00 0.05 0.05 55 1005.3
20260509212157 32 324 1.6 1.6 0.00 0.05 0.05 53 1005.1
20260509211653 32 265 3.2 4.8 0.00 0.05 0.05 52 1005.4
20260509211150 32 256 0.0 0.0 0.00 0.05 0.05 58 1005.2
20260509210646 31 261 3.2 3.2 0.00 0.05 0.05 60 1005.3
20260509210143 32 277 1.6 3.2 0.00 0.05 0.05 58 1005.7
20260509205638 31 210 0.0 0.0 0.00 0.05 0.05 64 1005.6
20260509205133 31 264 0.0 1.6 0.00 0.05 0.05 63 1005.6
20260509204630 31 223 0.0 0.0 0.00 0.05 0.05 64 1005.6
20260509204126 32 241 0.0 0.0 0.00 0.05 0.05 62 1005.7
20260509203622 32 234 0.0 0.0 0.00 0.05 0.05 64 1005.8
20260509203121 32 264 1.6 1.6 0.00 0.05 0.05 60 1006.0
20260509202620 32 247 0.0 0.0 0.00 0.05 0.05 61 1005.8
20260509202115 31 253 0.0 0.0 0.00 0.05 0.05 60 1006.1
20260509201610 31 100 0.0 0.0 0.00 0.05 0.05 63 1006.2
20260509201109 31 93 0.0 0.0 0.00 0.05 0.05 60 1006.3
20260509200608 30 96 0.0 0.0 0.00 0.05 0.05 67 1006.4
20260509200059 31 277 0.0 1.6 0.00 0.05 0.05 62 1006.7
20260509195555 31 232 0.0 1.6 0.00 0.05 0.05 63 1006.7
20260509195049 30 241 0.0 0.0 0.00 0.05 0.05 64 1006.8
20260509194544 31 248 3.2 6.4 0.00 0.05 0.05 65 1006.9
20260509194042 31 261 0.0 0.0 0.00 0.05 0.05 64 1006.9
20260509193537 31 225 1.6 1.6 0.00 0.05 0.05 68 1007.1
20260509193033 31 223 0.0 0.0 0.00 0.05 0.05 64 1007.0
20260509192530 31 241 0.0 0.0 0.00 0.05 0.05 64 1006.8
20260509192025 31 265 1.6 3.2 0.00 0.05 0.05 64 1007.1
20260509191520 30 275 3.2 3.2 0.00 0.05 0.05 63 1007.2
20260509191016 30 260 4.8 6.4 0.00 0.05 0.05 69 1007.2
20260509190513 31 244 0.0 0.0 0.00 0.05 0.05 67 1007.2
20260509190011 30 269 1.6 3.2 0.00 0.05 0.05 65 1007.5
20260509185508 30 257 3.2 3.2 0.00 0.05 0.05 68 1007.6
20260509185004 30 253 0.0 1.6 0.00 0.05 0.05 69 1007.2
20260509184503 30 262 4.8 4.8 0.00 0.05 0.05 70 1007.1
20260509183958 30 232 0.0 0.0 0.00 0.05 0.05 71 1007.3
20260509183453 29 246 3.2 4.8 0.00 0.05 0.05 72 1007.2
20260509182950 29 268 1.6 3.2 0.00 0.05 0.05 73 1007.6
20260509182446 30 263 0.0 1.6 0.00 0.05 0.05 73 1007.5
20260509181944 28 263 1.6 3.2 0.00 0.05 0.05 75 1007.8
20260509181441 30 234 1.6 1.6 0.00 0.05 0.05 74 1007.8
20260509180939 30 273 8.0 11.3 0.00 0.05 0.05 71 1008.0
20260509180434 29 269 0.0 0.0 0.00 0.05 0.05 73 1007.9
20260509175931 30 266 3.2 4.8 0.00 0.05 0.05 73 1007.8
20260509175427 29 237 3.2 4.8 0.00 0.05 0.05 74 1007.9
20260509174923 28 248 0.0 1.6 0.00 0.05 0.05 74 1008.1
20260509174420 28 237 1.6 1.6 0.00 0.05 0.05 74 1008.2
20260509173915 30 252 3.2 3.2 0.00 0.05 0.05 70 1008.3
20260509173409 29 255 0.0 0.0 0.00 0.05 0.05 72 1008.4
20260509172907 30 255 3.2 3.2 0.00 0.05 0.05 72 1008.3
20260509172403 28 252 1.6 3.2 0.00 0.05 0.05 73 1008.3
20260509171859 29 117 0.0 1.6 0.00 0.05 0.05 72 1008.3
20260509171355 28 191 0.0 0.0 0.00 0.05 0.05 72 1008.6
20260509170852 28 261 1.6 3.2 0.00 0.05 0.05 74 1008.2
20260509170347 28 221 6.4 9.7 0.00 0.05 0.05 73 1008.2
20260509165842 28 104 1.6 3.2 0.00 0.05 0.05 72 1008.3
20260509165337 28 266 1.6 1.6 0.00 0.05 0.05 73 1008.2
20260509164833 28 255 3.2 6.4 0.00 0.05 0.05 73 1008.1
20260509164330 28 101 1.6 1.6 0.00 0.05 0.05 76 1008.1
20260509163826 27 268 3.2 3.2 0.00 0.05 0.05 78 1008.2
20260509163322 28 225 1.6 3.2 0.00 0.05 0.05 78 1008.1
20260509162821 28 214 1.6 3.2 0.00 0.05 0.05 79 1008.2
20260509162314 28 266 3.2 4.8 0.00 0.05 0.05 80 1008.2
20260509161810 27 244 0.0 0.0 0.00 0.05 0.05 81 1008.4
20260509161307 27 249 1.6 3.2 0.00 0.05 0.05 82 1008.6
20260509160802 26 239 0.0 0.0 0.00 0.05 0.05 81 1008.6
20260509160259 26 222 3.2 3.2 0.00 0.05 0.05 83 1008.8
20260509155754 26 242 1.6 1.6 0.00 0.05 0.05 84 1008.7
20260509155251 26 246 0.0 1.6 0.00 0.05 0.05 85 1008.9
20260509154747 26 206 0.0 1.6 0.00 0.05 0.05 85 1009.0
20260509154244 27 215 0.0 0.0 0.00 0.05 0.05 84 1009.0
20260509153741 27 233 0.0 0.0 0.00 0.05 0.05 82 1009.1
20260509153237 27 76 1.6 3.2 0.00 0.05 0.05 85 1009.1
20260509152734 25 257 0.0 0.0 0.00 0.05 0.05 88 1009.1
20260509152230 26 298 0.0 0.0 0.00 0.05 0.05 90 1009.1
20260509151727 25 213 0.0 0.0 0.00 0.05 0.05 91 1009.3
20260509151224 25 228 0.0 0.0 0.00 0.05 0.05 94 1009.3
20260509150721 25 243 0.0 0.0 0.13 0.05 0.05 95 1009.3
20260509150220 24 222 0.0 1.6 0.30 0.05 0.05 95 1009.0
20260509145716 24 202 0.0 1.6 0.18 0.03 0.03 96 1009.1
20260509145211 24 222 1.6 1.6 0.00 0.00 0.00 95 1009.4
20260509144708 24 216 0.0 0.0 0.00 0.00 0.00 95 1009.4
20260509144205 24 207 0.0 0.0 0.00 0.00 0.00 95 1009.5
20260509143702 23 215 1.6 1.6 0.00 0.00 0.00 96 1009.2
20260509143159 23 119 4.8 6.4 0.00 0.00 0.00 96 1009.1